Location: ?????
(55.6500°N, 37.2500°E)
Time: 03:35:27
(UTC+00:00)

Meteor 1-14 Rocket - Pass Details

Date: 19 May 2025
Orbit: 833 x 917 km, 81.3° (Epoch: 15 June)

Event Time Altitude Azimuth Distance (km) Brightness Sun altitude
Rises 19:28:15 0° 344° (NNW) 3,405 9.2 -10.3°
Reaches altitude 10° 19:30:40 10° 343° (NNW) 2,473 8.1 -10.4°
Maximum altitude 19:36:15 75° 260° (W) 888 4.4 -10.8°
Enters shadow 19:41:27 12° 176° (S) 2,332 5.9 -11.1°
